Weather observations for the past three days for
Hawthorne, Hawthorne Municipal Airport
Imperial (Metric)
Date Time (pdt) Wind (mph) Vis. (mi.) Weather Sky Cond. Temperature (ºF) Relative Humidity Wind Chill (°F) Heat Index (°F) Pressure Precipitation (in)
Air Dwpt 6 hour altimeter (in) sea level (mb) 1 hr 3 hr 6 hr
Max. Min.
08 17:53 W 9 10.00 Overcast OVC012 64.9 57 76% 29.93 1013.3
08 16:53 W 13 10.00 A Few Clouds FEW015 66.9 57 70 64.9 71% 29.93 1013.4
08 15:53 W 13 10.00 Fair CLR 69.1 57 66% 29.94 1013.8
08 14:53 W 10 G 20 10.00 Fair CLR 69.1 57 66% 29.96 1014.6
08 13:53 W 9 10.00 Fair CLR 69.1 57 66% 29.98 1015.1
08 12:53 W 10 10.00 Overcast OVC020 68 57 68% 29.99 1015.6
08 11:53 W 7 10.00 Overcast OVC020 66 57 73% 30.01 1016.1
08 10:53 Calm 10.00 Overcast OVC017 64.9 55.9 64.9 62.1 73% 30.02 1016.4
08 09:53 SE 5 10.00 Overcast OVC015 64 55.9 75% 30.02 1016.5
08 08:53 Calm 10.00 Overcast OVC013 63 55.9 78% 30.02 1016.4
08 07:53 SE 6 10.00 Overcast OVC011 62.1 55.9 80% 30.02 1016.5
08 06:53 Vrbl 5 10.00 Overcast OVC011 62.1 57 84% 30.01 1016.2
08 05:53 Vrbl 3 10.00 Overcast OVC011 62.1 55.9 80% 30 1015.9
08 04:53 Calm 9.00 Overcast OVC013 62.1 55 63 61 78% 30 1015.6
08 03:53 SE 7 10.00 Overcast OVC013 62.1 55 78% 29.99 1015.4
08 02:53 S 6 10.00 Overcast OVC013 62.1 55.9 80% 29.99 1015.5
08 01:53 Calm 10.00 Overcast OVC013 62.1 55.9 80% 30 1015.8
08 00:53 Calm 10.00 Partly Cloudy SCT015 61 55.9 84% 30.01 1016.2
07 23:53 NW 3 10.00 Mostly Cloudy BKN010 61 57 87% 30.01 1016.1
07 22:53 SW 3 10.00 Fair CLR 62.1 57 68 62.1 84% 30.01 1016.0
07 21:53 W 5 10.00 Fair CLR 62.1 57 84% 30 1015.8
07 20:53 W 3 10.00 Fair CLR 62.1 55.9 80% 29.98 1015.2
07 19:53 W 7 10.00 Fair CLR 64 55.9 75% 29.96 1014.5
07 18:53 SW 9 10.00 Fair CLR 64.9 55.9 73% 29.95 1014.0
07 17:53 W 9 10.00 Fair CLR 66.9 55.9 68% 29.94 1013.9
07 16:53 SW 9 10.00 Fair CLR 66.9 55.9 70 66.9 68% 29.95 1014.0
07 15:53 W 13 G 18 10.00 Fair CLR 69.1 57 66% 29.95 1014.1
07 14:53 W 13 10.00 Fair CLR 69.1 55.9 63% 29.97 1014.7
07 13:53 W 13 G 21 10.00 Fair CLR 69.1 55.9 63% 29.98 1015.2
07 12:53 W 12 10.00 Fair CLR 69.1 55.9 63% 30 1015.7
07 11:53 W 6 10.00 Fair CLR 69.1 55.9 63% 30.01 1016.0
07 10:53 Vrbl 7 10.00 Fair CLR 68 55 68 59 63% 30.02 1016.3
07 09:53 Calm 10.00 Fair CLR 66.9 55 66% 30.02 1016.4
07 08:53 Vrbl 5 10.00 Fair CLR 64 55.9 75% 30.03 1016.6
07 07:53 W 5 10.00 A Few Clouds FEW011 62.1 55.9 80% 30.03 1016.7
07 06:53 W 6 10.00 Fair CLR 60.1 55 84% 30.02 1016.3
07 05:53 Calm 10.00 Fair CLR 59 55 87% 30 1015.9
07 04:53 Calm 10.00 Fair CLR 60.1 55 61 59 84% 30 1015.8
07 03:53 Calm 10.00 Fair CLR 60.1 54 80% 30.01 1016.1
07 02:53 Calm 10.00 Fair CLR 60.1 54 80% 30.02 1016.4
07 01:53 W 5 10.00 Fair CLR 61 55 81% 30.03 1016.8
07 00:53 Calm 10.00 Fair CLR 60.1 55 84% 30.04 1017.2
06 23:53 W 5 10.00 Fair CLR 60.1 55 84% 30.05 1017.4
06 22:53 W 7 10.00 Fair CLR 61 55 68 60.1 81% 30.05 1017.5
06 21:53 SW 7 10.00 Fair CLR 61 55 81% 30.05 1017.4
06 20:53 NW 7 10.00 Fair CLR 61 54 78% 30.04 1017.2
06 19:53 W 8 10.00 Fair CLR 63 54 73% 30.02 1016.6
06 18:53 W 7 10.00 Fair CLR 64.9 52 63% 30.01 1016.1
06 17:53 NW 9 10.00 Fair CLR 66.9 53.1 61% 30 1016.0
06 16:53 W 13 G 20 10.00 Fair CLR 68 54 70 66.9 61% 30 1015.8
06 15:53 W 12 10.00 Fair CLR 68 54 61% 30.01 1016.1
06 14:53 W 14 10.00 Fair CLR 69.1 52 55% 30.03 1016.8
06 13:53 W 13 10.00 Fair CLR 68 53.1 59% 30.05 1017.3
06 12:53 W 9 10.00 Fair CLR 69.1 53.1 57% 30.06 1017.7
06 11:53 W 8 10.00 Fair CLR 68 53.1 59% 30.07 1018.2
06 10:53 Calm 10.00 Fair CLR 68 50 68 57 53% 30.08 1018.4
06 09:53 Vrbl 3 10.00 Fair CLR 64.9 51.1 61% 30.08 1018.4
06 08:53 SE 5 10.00 Fair CLR 62.1 52 70% 30.08 1018.6
06 07:53 E 5 10.00 Fair CLR 60.1 52 75% 30.08 1018.7
06 06:53 Vrbl 3 10.00 Fair CLR 57.9 51.1 78% 30.07 1018.2
06 05:53 Calm 10.00 Fair CLR 57 52 83% 30.06 1017.8
06 04:53 Calm 10.00 Fair CLR 57 51.1 61 57 81% 30.05 1017.4
06 03:53 Calm 10.00 Fair CLR 57 50 78% 30.04 1017.3
06 02:53 Calm 10.00 Fair CLR 57.9 50 75% 30.04 1017.2
06 01:53 Calm 10.00 Fair CLR 59 52 78% 30.05 1017.6
06 00:53 Calm 10.00 Fair CLR 60.1 52 75% 30.06 1017.7
05 23:53 Calm 10.00 Fair CLR 61 53.1 75% 30.05 1017.4
05 22:53 SW 3 10.00 Fair CLR 61 53.1 66 61 75% 30.04 1017.1
05 21:53 Calm 10.00 Fair CLR 62.1 48 60% 30.02 1016.5
05 20:53 SW 5 10.00 Partly Cloudy SCT070 62.1 50 65% 30 1015.9
05 19:53 W 8 10.00 Partly Cloudy SCT070 63 50 63% 29.98 1015.2
05 18:53 SW 8 10.00 Overcast OVC075 64 48.9 58% 29.96 1014.5
Date Time (pdt) Wind (mph) Vis. (mi.) Weather Sky Cond. Air Dwpt Max. Min. Relative Humidity Wind Chill (°F) Heat Index (°F) altimeter (in) sea level (mb) 1 hr 3 hr 6 hr
6 hour
Temperature (ºF) Pressure Precipitation (in)